User: anonymous   Login
Location: Unspecified
(0.0000°N, 0.0000°E)
Time: 04:32:07
(UTC+00:00)
Language:

ERS-2 - Orbit

View from above orbital plane
View from above orbital plane
View from above satellite
View from above satellite

Ground track
Ground track

The orbit data is extracted from the following two-line orbital elements,

1 23560U 95021A   18292.61169215 +.00001083 +00000-0 +51224-4 0  9996
2 23560 098.5224 355.7662 0004813 085.2872 274.8910 15.22058171249772
Epoch (UTC): 19 October 2018 14:40:50
Eccentricity: 0.0004813
inclination: 98.5224°
perigee height: 496 km
apogee height: 503 km
right ascension of ascending node: 355.7662°
argument of perigee: 85.2872°
revolutions per day: 15.22058171
mean anomaly at epoch: 274.8910°
orbit number at epoch: 24977

The dashed part of the orbit path shows where the satellite is in the earth's shadow,  

DLR